Terminal Aerodrome Forecast
Issued by NWS

Home | Current Version | Previous Version | Text Only | Print | Product List | Glossary On
Versions: 1 2 3 4 5 6 7 8 9 10 11 12 13 14 15 16 17 18 19 20 21 22 23 24 25 26
000
FTUS43 KABR 291100
TAFATY
TAF
KATY 291123Z 2912/3012 29014G23KT P6SM SCT050
     FM291400 30020G30KT P6SM -SHRA OVC025
      TEMPO 2914/2916 30034G47KT 3SM SHRA OVC015
     FM291600 30024G35KT P6SM OVC020
     FM291900 33024G35KT P6SM SKC
     FM300100 VRB04KT P6SM SKC=

USA.gov is the U.S. government's official web portal to all federal, state and local government web resources and services.